Location: Fazenda Monte Alegre
(4.8500°S, 38.0333°W)
Time: 15:33:54
(UTC+00:00)

ATLAS 3B CENTAUR R/B - Pass Details

Date: 24 September 2020
Orbit: 220 x 4188 km, 28.1° (Epoch: 20 October)

Event Time Altitude Azimuth Distance (km) Brightness Sun altitude
Rises 20:44:10 0° 309° (NW) 3,801 6.5 -5.0°
Reaches altitude 10° 20:46:12 10° 312° (NW) 3,187 5.9 -5.5°
Maximum altitude 20:54:46 69° 35° (NE) 2,177 4.2 -7.6°
Drops below altitude 10° 21:14:24 10° 115° (ESE) 6,702 6.2 -12.5°
Enters shadow 21:17:13 - 116° (ESE) 7,348 6.5 -13.2°
